This demonstration page uses our WeatherBlox Daily Observations layout. Learn more.

Left ArrowRight Arrow

Hourly Observations for May 5, 2021

Temp ( °F °C ) Dew Point ( °F °C ) Humidity (%) Winds ( mph kmh ) Pressure ( in mb ) Visibility ( mi km ) Precip ( " mm )
12:15 am 00:15 Partly Cloudy 51 10.8 36 2 55 55 S 12 19 30.07 1018 10 16 N/A
12:35 am 00:35 Mostly Cloudy 52 11 36 2 54 54 SSE 13 20 30.07 1018 10 16 N/A
12:55 am 00:55 Cloudy 52 11.1 36 2.3 55 55 S 10 17 30.08 1019 10 16 N/A
1:15 am 01:15 Cloudy 52 11.2 36 2.3 55 55 S 10 17 30.09 1019 10 16 N/A
1:35 am 01:35 Cloudy 53 11.5 35 1.7 51 51 S 13 20 30.08 1019 10 16 N/A
1:55 am 01:55 Cloudy 53 11.7 34 1.1 48 48 S 13 20 30.09 1019 10 16 N/A
2:15 am 02:15 Cloudy 53 11.5 34 1 49 49 S 17 28 30.08 1019 10 16 N/A
2:35 am 02:35 Cloudy 52 11.3 34 1.2 50 50 S 16 26 30.07 1018 10 16 N/A
2:55 am 02:55 Cloudy 52 11.3 34 1 49 49 S 15 24 30.07 1018 10 16 N/A
3:15 am 03:15 Cloudy 52 11 33 0.7 49 49 SSW 14 22 30.07 1018 10 16 N/A
3:35 am 03:35 Cloudy 51 10.8 33 0.8 50 50 SSW 14 22 30.07 1018 10 16 N/A
3:55 am 03:55 Cloudy 51 10.6 34 0.9 51 51 S 13 20 30.08 1018 10 16 N/A
4:15 am 04:15 Cloudy 51 10.3 34 1.3 54 54 S 12 19 30.07 1018 10 16 N/A
4:35 am 04:35 Cloudy 50 10.1 35 1.4 55 55 S 12 19 30.07 1018 10 16 N/A
4:55 am 04:55 Cloudy 50 10.2 35 1.5 55 55 SSW 12 19 30.07 1018 10 16 N/A
5:15 am 05:15 Cloudy 50 10.1 35 1.5 55 55 S 13 20 30.07 1018 10 16 N/A
5:35 am 05:35 Cloudy 50 9.8 35 1.8 58 58 S 10 17 30.07 1018 10 16 N/A
5:55 am 05:55 Cloudy 49 9.7 36 2 59 59 SSW 10 17 30.07 1018 10 16 N/A
6:15 am 06:15 Cloudy 49 9.7 36 2.3 60 60 SSW 8 13 30.08 1019 10 16 N/A
6:35 am 06:35 Cloudy 51 10.5 36 2 56 56 SW 12 19 30.09 1019 10 16 N/A
6:55 am 06:55 Cloudy 51 10.3 36 2.1 57 57 SSW 15 24 30.09 1019 10 16 N/A
7:15 am 07:15 Cloudy 51 10.4 37 2.5 58 58 SSW 13 20 30.09 1019 10 16 N/A
7:35 am 07:35 Cloudy 51 10.6 37 2.5 58 58 SW 17 28 30.10 1019 10 16 N/A
7:55 am 07:55 Mostly Cloudy 51 10.6 37 2.7 58 58 SSW 17 28 30.10 1019 10 16 N/A
8:15 am 08:15 Partly Cloudy 52 11 37 2.9 58 58 SSW 14 22 30.08 1019 10 16 N/A
8:35 am 08:35 Partly Cloudy 53 11.6 38 3.2 57 57 SW 7 11 30.08 1019 10 16 N/A
8:55 am 08:55 Mostly Cloudy 55 12.8 37 2.6 50 50 SW 13 20 30.08 1018 10 16 N/A
9:15 am 09:15 Mostly Cloudy 54 12 37 2.7 53 53 SW 13 20 30.07 1018 10 16 N/A
9:35 am 09:35 Partly Cloudy 57 13.7 38 3.1 49 49 SW 15 24 30.06 1018 10 16 N/A
9:55 am 09:55 Sunny 58 14.6 38 3.6 48 48 SW 16 26 30.04 1017 10 16 N/A
10:15 am 10:15 Partly Cloudy 58 14.7 38 3.6 48 48 SW 17 28 30.04 1017 10 16 N/A
10:35 am 10:35 Partly Cloudy 59 15.1 40 4.3 49 49 WSW 12 19 30.02 1017 10 16 N/A
10:55 am 10:55 Sunny 61 16.1 41 5.2 49 49 WSW 9 15 30.03 1017 10 16 N/A
11:15 am 11:15 Sunny 62 16.7 42 5.8 49 49 WNW 13 20 30.02 1017 10 16 N/A
11:35 am 11:35 Sunny 64 17.6 44 6.9 50 50 WNW 15 24 30.02 1017 10 16 N/A
11:55 am 11:55 Sunny 64 17.8 43 6.3 47 47 NW 13 20 30.02 1017 10 16 N/A
12:15 pm 12:15 Sunny 66 18.9 42 5.7 42 42 NW 16 26 30.01 1016 10 16 N/A
12:35 pm 12:35 Sunny 67 19.4 41 4.8 38 38 NW 21 33 30.00 1016 10 16 N/A
12:55 pm 12:55 Partly Cloudy 67 19.7 39 3.7 35 35 NW 17 28 29.99 1016 10 16 N/A
1:15 pm 13:15 Partly Cloudy 67 19.4 38 3.1 34 34 NW 18 30 30.00 1016 10 16 N/A
1:35 pm 13:35 Partly Cloudy 67 19.6 38 3.1 34 34 NW 20 31 30.00 1016 10 16 N/A
1:55 pm 13:55 Mostly Cloudy 67 19.7 35 1.6 30 30 WNW 17 28 29.99 1016 10 16 N/A
2:15 pm 14:15 Partly Cloudy 69 20.6 35 1.9 29 29 NNW 17 28 29.99 1015 10 16 N/A
2:35 pm 14:35 Partly Cloudy 68 20.1 34 0.9 28 28 NW 18 30 29.99 1016 10 16 N/A
2:55 pm 14:55 Partly Cloudy 69 20.3 35 1.4 29 29 WNW 18 30 29.99 1016 10 16 N/A
3:15 pm 15:15 Mostly Cloudy 70 20.9 35 1.4 27 27 NW 22 35 29.99 1016 10 16 N/A
3:35 pm 15:35 Mostly Cloudy 69 20.3 34 0.9 28 28 NNW 21 33 29.99 1016 10 16 N/A
3:55 pm 15:55 Mostly Cloudy 70 21.3 33 0.7 25 25 NNW 17 28 29.98 1015 10 16 N/A
4:15 pm 16:15 Mostly Cloudy 70 21.1 33 0.4 25 25 NNW 23 37 29.98 1015 10 16 N/A
4:35 pm 16:35 Partly Cloudy 70 21.1 32 undefined 25 25 NNW 20 31 29.98 1015 10 16 N/A
4:55 pm 16:55 Sunny 70 21.3 30 -1.2 22 22 NNW 17 28 29.98 1015 10 16 N/A
5:15 pm 17:15 Partly Cloudy 70 20.9 30 -1.3 23 23 NNW 16 26 29.98 1015 10 16 N/A
5:35 pm 17:35 Sunny 70 21.2 30 -1.2 22 22 NW 18 30 29.98 1015 10 16 N/A
5:55 pm 17:55 Partly Cloudy 70 21.2 31 -0.8 23 23 NNW 20 31 29.98 1015 10 16 N/A
6:15 pm 18:15 Partly Cloudy 70 21 27 -2.6 20 20 NW 25 41 29.99 1016 10 16 N/A
6:35 pm 18:35 Sunny 67 19.7 30 -0.9 25 25 N 16 26 30.00 1016 10 16 N/A
6:55 pm 18:55 Sunny 68 20.2 31 -0.5 25 25 N 18 30 30.01 1016 10 16 N/A
7:15 pm 19:15 Partly Cloudy 67 19.5 31 -0.4 26 26 NNW 20 31 30.03 1017 10 16 N/A
7:35 pm 19:35 Mostly Cloudy 65 18.5 32 -0.1 29 29 N 15 24 30.04 1017 10 16 N/A
7:55 pm 19:55 Cloudy 63 17.3 34 1 33 33 NNW 25 41 30.08 1018 10 16 N/A
8:15 pm 20:15 Cloudy 62 16.6 36 2 38 38 NW 18 30 30.08 1019 10 16 N/A
8:35 pm 20:35 Cloudy 61 16.1 35 1.9 39 39 NNW 17 28 30.09 1019 10 16 N/A
8:55 pm 20:55 Partly Cloudy 57 14.1 37 2.7 46 46 NW 10 17 30.11 1020 10 16 N/A
9:15 pm 21:15 Clear 55 12.5 38 3.1 53 53 NW 10 17 30.14 1021 10 16 N/A
9:35 pm 21:35 Clear 53 11.4 38 3.6 59 59 NW 9 15 30.16 1021 10 16 N/A
9:55 pm 21:55 Clear 51 10.3 39 3.8 64 64 WNW 7 11 30.18 1022 10 16 N/A
10:15 pm 22:15 Clear 50 9.8 39 4 67 67 WNW 8 13 30.20 1023 10 16 N/A
10:35 pm 22:35 Clear 48 9 38 3.6 69 69 NNW 5 7 30.22 1023 10 16 N/A
10:55 pm 22:55 Clear 48 9 38 3.6 69 69 NNW 7 11 30.23 1024 10 16 N/A
11:15 pm 23:15 Clear 47 8.4 39 4 74 74 NNW 5 7 30.25 1024 10 16 N/A
11:35 pm 23:35 Clear 47 8.2 39 4 75 75 NW 7 11 30.25 1024 10 16 N/A
11:55 pm 23:55 Clear 48 8.8 39 4 72 72 NNW 7 11 30.24 1024 10 16 N/A

Powered by AerisWeather